Location: Newark
(13.6797°N, 8.5297°E)
Time: 00:32:11
(UTC+00:00)

Courier 1B Rocket - Pass Details

Date: 25 January 2020
Orbit: 920 x 1202 km, 28.2° (Epoch: 24 February)

Event Time Altitude Azimuth Distance (km) Brightness Sun altitude
Rises 18:24:48 0° 282° (WNW) 3,562 9.1 -15.2°
Reaches altitude 10° 18:27:39 10° 273° (W) 2,605 8.4 -15.9°
Maximum altitude 18:33:10 34° 211° (SSW) 1,475 6.4 -17.2°
Drops below altitude 10° 18:38:46 10° 148° (SSE) 2,631 7.1 -18.5°
Sets 18:41:40 0° 138° (SE) 3,602 7.7 -19.2°
